Location: Gro�sch�nbrunn
(49.5760°N, 11.8868°E)
Time: 02:20:16
(UTC+00:00)

CZ-4 R/B - Pass Details

Date: 18 September 2020
Orbit: 530 x 600 km, 97.7° (Epoch: 30 October)

Event Time Altitude Azimuth Distance (km) Brightness Sun altitude
Rises 18:44:47 0° 204° (SSW) 2,837 5.0 -14.5°
Reaches altitude 10° 18:47:28 10° 222° (SW) 1,941 4.4 -14.9°
Maximum altitude 18:50:32 19° 269° (W) 1,437 4.3 -15.4°
Drops below altitude 10° 18:53:35 10° 315° (NW) 1,944 5.2 -15.8°
Sets 18:56:18 0° 334° (NNW) 2,844 5.8 -16.2°
